Weather in Verkhniy Nergen

Russia / Khabarovsk Krai     49°50′38″N   136°47′51″E
temp.,
°C
wind,
m/s
gust,
m/s
humid.,
%
clouds,
%
prec.,
mm/h
press.,
hPa
HPBL,
m
27 february, sat
sat2701:00−19ssw3698100 0.1 1032117
04:00−20ssw4898100 0.1 1033171
07:00−22ssw479899 0.0 1034150
10:00−19ssw5109497 0.1 1032383
13:00−15sw61089100 0.0 1030469
16:00−13sw61087100 0.0 1027502
19:00−12sw3791100 0.0 1025218
22:00−13sw1291100 0.0 102230
28 february, sun
sun2801:00−13sw2493100 0.0 1018116
04:00−12sw3896100 1.3 1015303
07:00−9sw61394100 0.5 1014494
10:00−7sw81489100 0.6 1013586
13:00−6wsw91478100 0.0 1013822
16:00−6sw81472100 0.0 1014789
19:00−11sw6137666 0.0 1017272
22:00−14ssw598058 0.0 1020192
1 march, mon
mon101:00−17s6108292 0.0 1022179
04:00−18s599296 0.0 1024248
07:00−20s61094100 0.1 1025277
10:00−19ssw6985100 0.1 1027509
13:00−16ssw6976100 0.0 1026716
16:00−16sw478277 0.0 1026344
19:00−17sw712720 0.0 1028253
22:00−19sw510800 0.0 1029161
2 march, tue
tue201:00−21ssw58840 0.0 1030125
04:00−23ssw57850 0.0 1030118
07:00−25s45920 0.0 103175
10:00−23ssw48880 0.0 1031300
13:00−20sw46800 0.0 1029584
16:00−19sw34810 0.0 1028359
19:00−24ese11860 0.0 103020
22:00−23sse23920 0.0 103220
3 march, wed
wed301:00−25s33950 0.0 103122
04:00−26ssw34940 0.0 103040
07:00−27ssw349638 0.0 102938
10:00−23ssw479229 0.0 1028278
13:00−18sw478858 0.0 1024416
16:00−15sw478579 0.0 1021398
19:00−17sw2288100 0.0 101921
22:00−17sw2287100 0.0 101823